Regional Weather Roundup
Issued by NWS

Home | Current Version | Previous Version | Graphics & Text | Print | Product List | Glossary On
Versions: 1 2 3 4 5 6 7 8 9 10 11 12 13 14 15 16 17 18 19 20 21 22 23 24 25 26 27 28 29 30 31 32 33 34 35 36 37 38 39 40 41 42 43 44 45 46 47 48 49 50
158
ASUS43 KFSD 262102
RWRSD

WEATHER ROUNDUP FOR SOUTH DAKOTA
NATIONAL WEATHER SERVICE SIOUX FALLS SD
400 PM CDT TUE JUL 26 2016

NOTE: "FAIR" INDICATES FEW OR NO CLOUDS BELOW 12,000 FEET WITH NO
SIGNIFICANT WEATHER AND/OR OBSTRUCTIONS TO VISIBILITY.


SDZ001>005-009-010-012>017-262200-
NORTHWEST AND NORTH CENTRAL SOUTH DAKOTA

CITY           SKY/WX    TMP DP  RH WIND       PRES   REMARKS
BUFFALO          N/A     86  55  34 NE10      29.98F
FAITH            N/A     89  50  26 N12       30.00S
MOBRIDGE       PTSUNNY   86  66  51 E14       29.94R
$$

SDZ012>016-024>037-041>051-057-063-072>074-262200-
SOUTHWEST AND SOUTH CENTRAL SOUTH DAKOTA

CITY           SKY/WX    TMP DP  RH WIND       PRES   REMARKS
RAPID CTY ARPT CLOUDY    90  57  32 NE10      30.03S
PIERRE         CLOUDY    93  60  33 E16       29.93S
CUSTER         SUNNY     80  53  39 E14       30.17F
PHILIP         SUNNY     91  59  33 E8G21     29.96S
PINE RIDGE     MOSUNNY   90  61  37 NE6       29.98S
WINNER         MOCLDY    94  60  32 SE7       29.95R
$$

SDZ004>011-016>023-039-040-262200-
NORTHEAST SOUTH DAKOTA

CITY           SKY/WX    TMP DP  RH WIND       PRES   REMARKS
ABERDEEN       LGT RAIN  70  65  84 E6        30.02S
WATERTOWN      RAIN      73  67  81 SW7       30.06R
BROOKINGS      CLOUDY    82  67  60 S7        30.03S
SISSETON         N/A     74  65  73 NW8       29.98R
$$

SDZ017-020-022-023-036>040-048>070-262200-
SOUTHEAST SOUTH DAKOTA

CITY           SKY/WX    TMP DP  RH WIND       PRES   REMARKS
SIOUX FALLS    CLOUDY    86  64  47 S13G20    30.02S
HURON          CLOUDY    71  66  84 E12       29.99F
CHAMBERLAIN    CLOUDY    85  71  62 NE10      29.96S
MITCHELL       CLOUDY    87  62  43 SE8       29.98R
YANKTON        SUNNY     90  63  40 SE14      29.97F
$$

ABBREVIATIONS USED IN REMARKS
   TC - TEMPERATURE IN CELSIUS
  WCI - WIND CHILL INDEX
   HX - HEAT INDEX
  VSB - VISIBILITY





USA.gov is the U.S. government's official web portal to all federal, state and local government web resources and services.